Weather in Kachiry

Kazakhstan     53°03′52″N   76°06′29″E
temp.,
°C
wind,
m/s
gust,
m/s
humid.,
%
clouds,
%
prec.,
mm/h
press.,
hPa
HPBL,
m
28 january, thu
thu2800:00−4w61093100 0.1 1031405
03:00−7w51093100 0.0 1032272
06:00−10wsw479489 0.1 1033117
09:00−11wsw5109165 0.0 1033157
12:00−8w6109133 0.0 1033329
15:00−6wsw6119199 0.0 1032362
18:00−7wsw5129273 0.0 1032275
21:00−5wsw71388100 0.0 1032290
29 january, fri
fri2900:00−5wsw71488100 0.0 1031309
03:00−5wsw81585100 0.0 1030355
06:00−5wsw81782100 0.0 1031364
09:00−5wsw81583100 0.0 1030345
12:00−4w71483100 0.0 1031365
15:00−4wsw71384100 0.0 1030358
18:00−6wsw51187100 0.0 1031258
21:00−7wsw51088100 0.0 1031189
30 january, sat
sat3000:00−8wsw4887100 0.0 1032132
03:00−10wsw3486100 0.0 103255
06:00−11wsw348681 0.0 103343
09:00−12wsw228565 0.0 103321
12:00−9s228556 0.0 103360
15:00−7sse238626 0.0 103173
18:00−10se348130 0.0 103022
21:00−10se458599 0.0 103063
31 january, sun
sun3100:00−10se488394 0.0 1028117
03:00−11se488497 0.0 1027110
06:00−11se488399 0.0 1025125
09:00−9se51280100 0.0 1024202
12:00−7sse51182100 0.0 1023289
15:00−6se4986100 0.0 1021282
18:00−10se4488100 0.0 102083
21:00−12ese3387100 0.0 102035
1 february, mon
mon100:00−13ese3488100 0.0 102044
03:00−15ese1189100 0.0 102020
06:00−16nnw119095 0.0 102120
09:00−16nw23892 0.0 102420
12:00−13wnw23891 0.0 1025104
15:00−12w35921 0.0 1026207
18:00−15w34949 0.0 102841
21:00−16wsw349516 0.0 102835